Time,TemperatureF,DewpointF,PressureIn,WindDirection,WindDirectionDegrees,WindSpeedMPH,WindSpeedGustMPH,Humidity,HourlyPrecipIn,Conditions,Clouds,dailyrainin,SoftwareType,DateUTC
2013-06-01 00:02:00,58.0,55.0,29.58,East,85,0.0,3.0,91,0.09,,,0.66,,2013-06-01 05:02:00,
2013-06-01 00:12:00,58.0,55.0,29.58,East,85,0.0,3.0,91,0.09,,,0.66,,2013-06-01 05:12:00,
2013-06-01 00:22:00,58.0,55.0,29.59,ESE,107,1.0,3.0,91,0.11,,,0.70,,2013-06-01 05:22:00,
2013-06-01 00:32:00,58.0,55.0,29.59,ENE,67,1.0,6.0,90,0.14,,,0.76,,2013-06-01 05:32:00,
2013-06-01 00:42:00,57.0,54.0,29.60,SE,128,0.0,3.0,90,0.15,,,0.78,,2013-06-01 05:42:00,
2013-06-01 00:52:00,57.0,54.0,29.60,SE,128,0.0,3.0,90,0.15,,,0.78,,2013-06-01 05:52:00,
2013-06-01 01:01:00,57.0,54.0,29.57,ESE,116,0.0,2.0,90,0.13,,,0.79,,2013-06-01 06:01:00,
2013-06-01 01:12:00,57.0,54.0,29.54,SSE,148,0.0,3.0,90,0.10,,,0.80,,2013-06-01 06:12:00,
2013-06-01 01:22:00,57.0,54.0,29.54,SSE,148,0.0,3.0,90,0.10,,,0.80,,2013-06-01 06:22:00,
2013-06-01 01:32:00,57.0,54.0,29.53,ESE,111,0.0,2.0,90,0.06,,,0.80,,2013-06-01 06:32:00,
2013-06-01 01:42:00,56.0,53.0,29.53,SE,136,0.0,0.0,90,0.02,,,0.80,,2013-06-01 06:42:00,
2013-06-01 01:52:00,56.0,53.0,29.53,SE,136,0.0,0.0,90,0.02,,,0.80,,2013-06-01 06:52:00,
2013-06-01 02:01:00,56.0,53.0,29.53,SE,136,0.0,0.0,91,0.01,,,0.80,,2013-06-01 07:01:00,
2013-06-01 02:11:00,56.0,53.0,29.53,SE,136,0.0,0.0,91,0.01,,,0.80,,2013-06-01 07:11:00,
2013-06-01 02:21:00,56.0,53.0,29.53,SE,136,0.0,1.0,91,0.00,,,0.80,,2013-06-01 07:21:00,
2013-06-01 02:31:00,56.0,53.0,29.54,SE,146,0.0,1.0,90,0.00,,,0.80,,2013-06-01 07:31:00,
2013-06-01 02:42:00,56.0,53.0,29.53,SSW,204,0.0,0.0,90,0.00,,,0.80,,2013-06-01 07:42:00,
2013-06-01 02:52:00,56.0,53.0,29.53,SSW,204,0.0,0.0,90,0.00,,,0.80,,2013-06-01 07:52:00,
2013-06-01 03:02:00,56.0,53.0,29.53,SE,136,0.0,1.0,90,0.00,,,0.80,,2013-06-01 08:02:00,
2013-06-01 03:11:00,55.0,52.0,29.54,SE,136,0.0,0.0,90,0.00,,,0.80,,2013-06-01 08:11:00,
2013-06-01 03:21:00,55.0,52.0,29.54,SE,136,0.0,0.0,90,0.00,,,0.80,,2013-06-01 08:21:00,
2013-06-01 03:32:00,55.0,52.0,29.53,SE,136,0.0,0.0,91,0.00,,,0.80,,2013-06-01 08:32:00,
2013-06-01 03:42:00,55.0,52.0,29.53,SE,136,0.0,0.0,91,0.00,,,0.80,,2013-06-01 08:42:00,
2013-06-01 03:52:00,55.0,52.0,29.53,SE,136,0.0,0.0,91,0.00,,,0.80,,2013-06-01 08:52:00,
2013-06-01 04:01:00,54.0,51.0,29.53,SE,136,0.0,0.0,91,0.00,,,0.80,,2013-06-01 09:01:00,
2013-06-01 04:12:00,54.0,51.0,29.53,SE,136,0.0,0.0,91,0.00,,,0.80,,2013-06-01 09:12:00,
2013-06-01 04:21:00,54.0,51.0,29.52,SE,136,0.0,0.0,91,0.00,,,0.80,,2013-06-01 09:21:00,
2013-06-01 04:33:00,54.0,52.0,29.52,SE,136,0.0,0.0,92,0.00,,,0.80,,2013-06-01 09:33:00,
2013-06-01 04:42:00,54.0,52.0,29.52,SE,136,0.0,0.0,92,0.00,,,0.80,,2013-06-01 09:42:00,
2013-06-01 04:53:00,54.0,52.0,29.51,SE,136,0.0,0.0,92,0.00,,,0.80,,2013-06-01 09:53:00,
2013-06-01 05:02:00,54.0,52.0,29.51,SE,136,0.0,0.0,92,0.00,,,0.80,,2013-06-01 10:02:00,
2013-06-01 05:13:00,54.0,52.0,29.51,SE,136,0.0,0.0,92,0.00,,,0.80,,2013-06-01 10:13:00,
2013-06-01 05:22:00,53.0,51.0,29.52,SE,136,0.0,0.0,92,0.00,,,0.80,,2013-06-01 10:22:00,
2013-06-01 05:32:00,53.0,51.0,29.52,SE,136,0.0,0.0,92,0.00,,,0.80,,2013-06-01 10:32:00,
2013-06-01 05:42:00,53.0,51.0,29.52,SE,136,0.0,0.0,92,0.00,,,0.80,,2013-06-01 10:42:00,
2013-06-01 05:52:00,53.0,51.0,29.52,SE,136,0.0,0.0,92,0.00,,,0.80,,2013-06-01 10:52:00,
2013-06-01 06:02:00,54.0,52.0,29.52,SE,136,0.0,0.0,92,0.00,,,0.80,,2013-06-01 11:02:00,
2013-06-01 06:11:00,54.0,52.0,29.52,SE,136,0.0,0.0,92,0.00,,,0.80,,2013-06-01 11:11:00,
2013-06-01 06:21:00,54.0,52.0,29.53,SE,136,0.0,0.0,93,0.00,,,0.80,,2013-06-01 11:21:00,
2013-06-01 06:32:00,54.0,52.0,29.54,SE,136,0.0,0.0,92,0.00,,,0.80,,2013-06-01 11:32:00,
2013-06-01 06:42:00,55.0,53.0,29.54,SE,136,0.0,0.0,92,0.00,,,0.79,,2013-06-01 11:42:00,
2013-06-01 06:52:00,55.0,53.0,29.54,SE,136,0.0,0.0,92,0.00,,,0.79,,2013-06-01 11:52:00,
2013-06-01 07:01:00,55.0,53.0,29.55,SE,136,0.0,0.0,93,0.00,,,0.79,,2013-06-01 12:01:00,
2013-06-01 07:12:00,55.0,53.0,29.55,SE,136,0.0,0.0,93,0.00,,,0.79,,2013-06-01 12:12:00,
2013-06-01 07:21:00,56.0,54.0,29.54,SE,136,0.0,0.0,93,0.00,,,0.79,,2013-06-01 12:21:00,
2013-06-01 07:32:00,56.0,54.0,29.54,SE,136,0.0,0.0,93,0.00,,,0.79,,2013-06-01 12:32:00,
2013-06-01 07:41:00,57.0,55.0,29.55,SE,136,0.0,0.0,93,0.00,,,0.79,,2013-06-01 12:41:00,
2013-06-01 07:52:00,57.0,55.0,29.55,SE,136,0.0,0.0,93,0.00,,,0.79,,2013-06-01 12:52:00,
2013-06-01 08:01:00,57.0,55.0,29.55,SE,136,0.0,0.0,93,0.00,,,0.79,,2013-06-01 13:01:00,
2013-06-01 08:11:00,57.0,55.0,29.55,SE,136,0.0,0.0,93,0.00,,,0.79,,2013-06-01 13:11:00,
2013-06-01 08:22:00,57.0,55.0,29.56,SE,136,0.0,0.0,93,0.00,,,0.79,,2013-06-01 13:22:00,
2013-06-01 08:32:00,58.0,56.0,29.56,SE,136,0.0,1.0,93,0.00,,,0.79,,2013-06-01 13:32:00,
2013-06-01 08:42:00,58.0,56.0,29.55,SE,137,0.0,1.0,93,0.00,,,0.79,,2013-06-01 13:42:00,
2013-06-01 08:52:00,58.0,56.0,29.55,SE,137,0.0,1.0,93,0.00,,,0.79,,2013-06-01 13:52:00,
2013-06-01 09:02:00,60.0,57.0,29.55,NNE,15,1.0,2.0,91,0.00,,,0.79,,2013-06-01 14:02:00,
2013-06-01 09:11:00,60.0,57.0,29.55,NNE,15,1.0,2.0,91,0.00,,,0.79,,2013-06-01 14:11:00,
2013-06-01 09:21:00,61.0,58.0,29.55,NNE,13,0.0,1.0,90,0.00,,,0.79,,2013-06-01 14:21:00,
2013-06-01 09:32:00,63.0,59.0,29.56,SSW,193,0.0,0.0,86,0.00,,,0.79,,2013-06-01 14:32:00,
2013-06-01 09:42:00,63.0,59.0,29.56,SSW,193,0.0,0.0,86,0.00,,,0.79,,2013-06-01 14:42:00,
2013-06-01 09:52:00,65.0,59.0,29.56,South,182,0.0,1.0,81,0.00,,,0.79,,2013-06-01 14:52:00,
2013-06-01 10:01:00,65.0,59.0,29.56,SE,125,0.0,0.0,80,0.00,,,0.79,,2013-06-01 15:01:00,
2013-06-01 10:11:00,65.0,59.0,29.56,SE,125,0.0,0.0,80,0.00,,,0.79,,2013-06-01 15:11:00,
2013-06-01 10:21:00,65.0,58.0,29.56,SE,125,0.0,1.0,79,0.00,,,0.79,,2013-06-01 15:21:00,
2013-06-01 10:33:00,65.0,57.0,29.56,NE,43,0.0,2.0,76,0.00,,,0.79,,2013-06-01 15:33:00,
2013-06-01 10:43:00,65.0,57.0,29.56,NE,43,0.0,2.0,76,0.00,,,0.79,,2013-06-01 15:43:00,
2013-06-01 10:53:00,66.0,59.0,29.56,WSW,246,0.0,2.0,77,0.00,,,0.79,,2013-06-01 15:53:00,
2013-06-01 11:03:00,67.0,58.0,29.56,NNE,26,0.0,3.0,74,0.00,,,0.79,,2013-06-01 16:03:00,
2013-06-01 11:12:00,67.0,58.0,29.56,NNE,26,0.0,3.0,74,0.00,,,0.79,,2013-06-01 16:12:00,
2013-06-01 11:23:00,66.0,58.0,29.57,West,281,0.0,1.0,76,0.00,,,0.79,,2013-06-01 16:23:00,
2013-06-01 11:33:00,66.0,59.0,29.56,NW,313,0.0,2.0,77,0.00,,,0.79,,2013-06-01 16:33:00,
2013-06-01 11:42:00,67.0,58.0,29.57,NNE,26,0.0,1.0,73,0.00,,,0.79,,2013-06-01 16:42:00,
2013-06-01 11:52:00,67.0,58.0,29.57,NNE,26,0.0,1.0,73,0.00,,,0.79,,2013-06-01 16:52:00,
2013-06-01 12:02:00,66.0,58.0,29.57,NE,46,0.0,1.0,75,0.00,,,0.79,,2013-06-01 17:02:00,
2013-06-01 12:11:00,66.0,58.0,29.57,NE,46,0.0,1.0,75,0.00,,,0.79,,2013-06-01 17:11:00,
2013-06-01 12:22:00,67.0,58.0,29.56,WNW,300,0.0,1.0,74,0.00,,,0.79,,2013-06-01 17:22:00,
2013-06-01 12:32:00,67.0,57.0,29.56,West,270,0.0,3.0,71,0.00,,,0.79,,2013-06-01 17:32:00,
2013-06-01 12:42:00,67.0,57.0,29.56,West,270,0.0,3.0,71,0.00,,,0.79,,2013-06-01 17:42:00,
2013-06-01 12:52:00,68.0,57.0,29.56,WNW,284,0.0,1.0,68,0.00,,,0.79,,2013-06-01 17:52:00,
2013-06-01 13:01:00,67.0,56.0,29.57,WSW,254,1.0,3.0,68,0.00,,,0.79,,2013-06-01 18:01:00,
2013-06-01 13:12:00,67.0,56.0,29.57,WSW,254,1.0,3.0,68,0.00,,,0.79,,2013-06-01 18:12:00,
2013-06-01 13:21:00,67.0,56.0,29.57,WNW,302,1.0,3.0,67,0.00,,,0.79,,2013-06-01 18:21:00,
2013-06-01 13:32:00,68.0,55.0,29.57,WNW,284,0.0,3.0,64,0.00,,,0.79,,2013-06-01 18:32:00,
2013-06-01 13:42:00,68.0,55.0,29.57,WNW,284,0.0,3.0,64,0.00,,,0.79,,2013-06-01 18:42:00,
2013-06-01 13:51:00,69.0,55.0,29.57,WSW,241,1.0,2.0,61,0.00,,,0.79,,2013-06-01 18:51:00,
2013-06-01 14:01:00,68.0,54.0,29.58,West,278,2.0,5.0,62,0.00,,,0.79,,2013-06-01 19:01:00,
2013-06-01 14:11:00,67.0,54.0,29.58,SSW,213,2.0,3.0,64,0.00,,,0.79,,2013-06-01 19:11:00,
2013-06-01 14:21:00,67.0,54.0,29.58,SSW,213,2.0,3.0,64,0.00,,,0.79,,2013-06-01 19:21:00,
2013-06-01 14:32:00,67.0,55.0,29.57,WSW,242,2.0,6.0,65,0.00,,,0.79,,2013-06-01 19:32:00,
2013-06-01 14:41:00,67.0,55.0,29.57,WSW,242,2.0,6.0,65,0.00,,,0.79,,2013-06-01 19:41:00,
2013-06-01 14:52:00,67.0,55.0,29.58,WSW,249,1.0,3.0,66,0.00,,,0.79,,2013-06-01 19:52:00,
2013-06-01 15:01:00,68.0,55.0,29.58,SW,224,1.0,3.0,63,0.00,,,0.79,,2013-06-01 20:01:00,
2013-06-01 15:12:00,68.0,55.0,29.58,SW,224,1.0,3.0,63,0.00,,,0.79,,2013-06-01 20:12:00,
2013-06-01 15:21:00,70.0,53.0,29.58,West,269,2.0,6.0,55,0.00,,,0.79,,2013-06-01 20:21:00,
2013-06-01 15:32:00,70.0,54.0,29.58,WSW,255,0.0,3.0,56,0.00,,,0.79,,2013-06-01 20:32:00,
2013-06-01 15:41:00,70.0,53.0,29.58,NNE,27,1.0,6.0,55,0.00,,,0.79,,2013-06-01 20:41:00,
2013-06-01 15:52:00,70.0,53.0,29.58,NNE,27,1.0,6.0,55,0.00,,,0.79,,2013-06-01 20:52:00,
2013-06-01 16:01:00,71.0,54.0,29.58,SW,221,1.0,5.0,54,0.00,,,0.79,,2013-06-01 21:01:00,
2013-06-01 16:11:00,71.0,53.0,29.58,West,261,2.0,6.0,53,0.00,,,0.79,,2013-06-01 21:11:00,
2013-06-01 16:21:00,71.0,53.0,29.58,West,261,2.0,6.0,53,0.00,,,0.79,,2013-06-01 21:21:00,
2013-06-01 16:33:00,72.0,53.0,29.58,WNW,283,1.0,5.0,52,0.00,,,0.75,,2013-06-01 21:33:00,
2013-06-01 16:42:00,72.0,53.0,29.58,WNW,283,1.0,5.0,52,0.00,,,0.75,,2013-06-01 21:42:00,
2013-06-01 16:53:00,71.0,54.0,29.59,West,260,0.0,2.0,55,0.00,,,0.46,,2013-06-01 21:53:00,
2013-06-01 17:03:00,71.0,54.0,29.59,WSW,240,0.0,3.0,56,0.00,,,0.46,,2013-06-01 22:03:00,
2013-06-01 17:12:00,72.0,54.0,29.59,WSW,245,0.0,3.0,54,0.00,,,0.46,,2013-06-01 22:12:00,
2013-06-01 17:23:00,72.0,54.0,29.59,WSW,245,0.0,3.0,54,0.00,,,0.46,,2013-06-01 22:23:00,
2013-06-01 17:33:00,71.0,53.0,29.60,WNW,298,1.0,2.0,53,0.00,,,0.46,,2013-06-01 22:33:00,
2013-06-01 17:42:00,71.0,54.0,29.60,West,261,1.0,3.0,54,0.00,,,0.46,,2013-06-01 22:42:00,
2013-06-01 17:53:00,71.0,54.0,29.60,West,261,1.0,3.0,54,0.00,,,0.46,,2013-06-01 22:53:00,
2013-06-01 18:02:00,68.0,55.0,29.62,ESE,110,1.0,5.0,63,0.00,,,0.46,,2013-06-01 23:02:00,
2013-06-01 18:11:00,66.0,55.0,29.62,ENE,68,0.0,3.0,68,0.00,,,0.46,,2013-06-01 23:11:00,
2013-06-01 18:21:00,66.0,55.0,29.62,ENE,68,0.0,3.0,68,0.00,,,0.46,,2013-06-01 23:21:00,
2013-06-01 18:32:00,65.0,56.0,29.63,WSW,253,1.0,2.0,72,0.00,,,0.46,,2013-06-01 23:32:00,
2013-06-01 18:42:00,65.0,56.0,29.63,WSW,253,1.0,2.0,72,0.00,,,0.46,,2013-06-01 23:42:00,
2013-06-01 18:52:00,64.0,56.0,29.64,NNE,32,0.0,2.0,75,0.00,,,0.46,,2013-06-01 23:52:00,
2013-06-01 19:02:00,63.0,56.0,29.64,WNW,282,0.0,6.0,79,0.00,,,0.46,,2013-06-02 00:02:00,
2013-06-01 19:11:00,63.0,56.0,29.64,WNW,282,0.0,6.0,79,0.00,,,0.46,,2013-06-02 00:11:00,
2013-06-01 19:21:00,63.0,57.0,29.65,WSW,256,1.0,7.0,80,0.00,,,0.46,,2013-06-02 00:21:00,
2013-06-01 19:32:00,61.0,54.0,29.66,North,358,4.0,17.0,78,0.00,,,0.44,,2013-06-02 00:32:00,
2013-06-01 19:41:00,61.0,54.0,29.66,North,358,4.0,17.0,78,0.00,,,0.44,,2013-06-02 00:41:00,
2013-06-01 19:51:00,58.0,53.0,29.66,North,5,3.0,10.0,82,0.00,,,0.39,,2013-06-02 00:51:00,
2013-06-01 20:01:00,57.0,52.0,29.67,NNW,329,3.0,9.0,82,0.00,,,0.39,,2013-06-02 01:01:00,
2013-06-01 20:11:00,57.0,52.0,29.67,NNW,329,3.0,9.0,82,0.00,,,0.39,,2013-06-02 01:11:00,
2013-06-01 20:21:00,57.0,52.0,29.69,NNW,347,3.0,12.0,83,0.00,,,0.39,,2013-06-02 01:21:00,
2013-06-01 20:32:00,56.0,51.0,29.70,North,359,4.0,12.0,84,0.00,,,0.39,,2013-06-02 01:32:00,
2013-06-01 20:41:00,56.0,51.0,29.70,North,357,3.0,9.0,83,0.00,,,0.39,,2013-06-02 01:41:00,
2013-06-01 20:52:00,56.0,51.0,29.70,North,357,3.0,9.0,83,0.00,,,0.39,,2013-06-02 01:52:00,
2013-06-01 21:01:00,56.0,51.0,29.71,North,10,3.0,12.0,82,0.00,,,0.39,,2013-06-02 02:01:00,
2013-06-01 21:12:00,56.0,51.0,29.71,North,10,3.0,12.0,82,0.00,,,0.39,,2013-06-02 02:12:00,
2013-06-01 21:21:00,55.0,49.0,29.72,NW,313,5.0,10.0,80,0.00,,,0.39,,2013-06-02 02:21:00,
2013-06-01 21:32:00,54.0,47.0,29.73,NW,306,6.0,14.0,78,0.00,,,0.39,,2013-06-02 02:32:00,
2013-06-01 21:41:00,54.0,47.0,29.73,NW,306,6.0,14.0,78,0.00,,,0.39,,2013-06-02 02:41:00,
2013-06-01 21:51:00,54.0,47.0,29.75,North,350,5.0,10.0,78,0.00,,,0.39,,2013-06-02 02:51:00,
2013-06-01 22:02:00,53.0,46.0,29.75,West,261,3.0,9.0,78,0.00,,,0.39,,2013-06-02 03:02:00,
2013-06-01 22:11:00,53.0,46.0,29.75,West,261,3.0,9.0,78,0.00,,,0.39,,2013-06-02 03:11:00,
2013-06-01 22:21:00,53.0,46.0,29.76,North,10,2.0,12.0,78,0.00,,,0.39,,2013-06-02 03:21:00,
2013-06-01 22:33:00,53.0,47.0,29.77,NW,316,3.0,9.0,80,0.00,,,0.39,,2013-06-02 03:33:00,
2013-06-01 22:43:00,53.0,47.0,29.77,NW,316,3.0,9.0,80,0.00,,,0.39,,2013-06-02 03:43:00,
2013-06-01 22:53:00,51.0,47.0,29.78,NNW,339,3.0,10.0,85,0.00,,,0.38,,2013-06-02 03:53:00,
2013-06-01 23:02:00,51.0,46.0,29.78,NNW,344,2.0,10.0,82,0.00,,,0.23,,2013-06-02 04:02:00,
2013-06-01 23:13:00,51.0,46.0,29.78,NNW,344,2.0,10.0,82,0.00,,,0.23,,2013-06-02 04:13:00,
2013-06-01 23:23:00,51.0,45.0,29.78,NNE,15,2.0,9.0,81,0.00,,,0.21,,2013-06-02 04:23:00,
2013-06-01 23:33:00,51.0,45.0,29.79,NNE,14,2.0,10.0,81,0.00,,,0.19,,2013-06-02 04:33:00,
2013-06-01 23:42:00,51.0,45.0,29.79,NNE,14,2.0,10.0,81,0.00,,,0.19,,2013-06-02 04:42:00,
2013-06-01 23:52:00,50.0,45.0,29.80,NW,324,3.0,8.0,82,0.00,,,0.16,,2013-06-02 04:52:00,